DW2227 Weather Reports


Display with metric or nautical units.
time (UTC)temp
F
wind
direction
speed
MPH
gust
MPH
rain 1hr
in
rain 24hr
in
rain mn
in
humidity
%
barometer
mb
20260905202853 92 231 0.0 1.0 0.00 0.00 0.00 68 1013.9
20260905202347 92 231 0.0 2.0 0.00 0.00 0.00 68 1013.8
20260905201821 92 360 0.0 2.0 0.00 0.00 0.00 67 1013.8
20260905201334 92 185 0.0 2.0 0.00 0.00 0.00 68 1013.7
20260905200849 92 171 0.0 2.0 0.00 0.00 0.00 70 1013.8
20260905200322 92 171 0.0 2.0 0.00 0.00 0.00 66 1013.8
20260905195817 93 209 0.0 4.0 0.00 0.00 0.00 68 1013.8
20260905195332 93 201 0.0 4.0 0.00 0.00 0.00 68 1013.8
20260905194849 93 201 0.0 1.0 0.00 0.00 0.00 68 1013.8
20260905194345 93 184 0.0 1.0 0.00 0.00 0.00 67 1013.9
20260905193819 93 184 0.0 2.0 0.00 0.00 0.00 68 1013.8
20260905193335 93 184 1.0 2.0 0.00 0.00 0.00 67 1013.9
20260905192829 92 164 0.0 1.0 0.00 0.00 0.00 67 1013.9
20260905192346 92 164 0.0 1.0 0.00 0.00 0.00 70 1014.0
20260905191817 92 164 0.0 0.0 0.00 0.00 0.00 69 1014.1
20260905191351 93 164 0.0 2.0 0.00 0.00 0.00 68 1014.2
20260905190826 93 164 0.0 3.0 0.00 0.00 0.00 68 1014.3
20260905190321 93 51 2.0 3.0 0.00 0.00 0.00 66 1014.3
20260905185835 93 217 0.0 1.0 0.00 0.00 0.00 67 1014.3
20260905185351 92 217 0.0 2.0 0.00 0.00 0.00 69 1014.3
20260905184825 92 217 0.0 2.0 0.00 0.00 0.00 70 1014.3
20260905184320 92 235 0.0 1.0 0.00 0.00 0.00 70 1014.4
20260905183834 92 209 0.0 1.0 0.00 0.00 0.00 68 1014.5
20260905183329 92 209 0.0 1.0 0.00 0.00 0.00 67 1014.4
20260905182823 92 209 0.0 2.0 0.00 0.00 0.00 67 1014.4
20260905182318 92 138 0.0 2.0 0.00 0.00 0.00 67 1014.4
20260905181833 92 261 0.0 1.0 0.00 0.00 0.00 69 1014.5
20260905181348 92 308 0.0 1.0 0.00 0.00 0.00 67 1014.5
20260905180821 92 308 0.0 1.0 0.00 0.00 0.00 68 1014.5
20260905180335 92 308 0.0 1.0 0.00 0.00 0.00 69 1014.6
20260905175827 92 282 0.0 1.0 0.00 0.00 0.00 69 1014.6
20260905175342 92 282 0.0 1.0 0.00 0.00 0.00 68 1014.6
20260905174835 92 282 0.0 1.0 0.00 0.00 0.00 70 1014.6
20260905174329 91 207 0.0 1.0 0.00 0.00 0.00 69 1014.7
20260905173824 91 207 0.0 1.0 0.00 0.00 0.00 72 1014.8
20260905173319 91 116 0.0 1.0 0.00 0.00 0.00 70 1014.8
20260905172836 92 116 0.0 1.0 0.00 0.00 0.00 69 1014.7
20260905172347 92 116 0.0 2.0 0.00 0.00 0.00 69 1014.7
20260905171822 92 220 0.0 2.0 0.00 0.00 0.00 69 1014.8
20260905171318 92 98 0.0 2.0 0.00 0.00 0.00 66 1015.0
20260905170852 92 109 1.0 2.0 0.00 0.00 0.00 66 1015.0
20260905170346 92 172 0.0 2.0 0.00 0.00 0.00 68 1015.0
20260905165834 92 253 0.0 3.0 0.00 0.00 0.00 70 1015.0
20260905165328 92 253 0.0 3.0 0.00 0.00 0.00 68 1015.0
20260905164823 92 100 0.0 2.0 0.00 0.00 0.00 70 1015.0
20260905164317 91 153 0.0 2.0 0.00 0.00 0.00 70 1015.0
20260905163831 91 189 0.0 3.0 0.00 0.00 0.00 72 1015.0
20260905163325 91 162 0.0 2.0 0.00 0.00 0.00 72 1014.9
20260905162818 90 162 0.0 2.0 0.00 0.00 0.00 71 1014.9
20260905162331 90 162 0.0 5.0 0.00 0.00 0.00 73 1014.9
20260905161825 90 162 2.0 5.0 0.00 0.00 0.00 71 1014.8
20260905161318 90 96 0.0 3.0 0.00 0.00 0.00 72 1014.8
20260905160831 90 138 1.0 3.0 0.00 0.00 0.00 72 1014.8
20260905160326 89 123 0.0 1.0 0.00 0.00 0.00 75 1014.8
20260905155841 89 123 0.0 1.0 0.00 0.00 0.00 75 1014.8
20260905155336 88 149 0.0 2.0 0.00 0.00 0.00 77 1014.8
20260905154831 88 149 0.0 3.0 0.00 0.00 0.00 75 1014.8
20260905154345 88 36 0.0 3.0 0.00 0.00 0.00 78 1014.8
20260905153818 88 182 0.0 2.0 0.00 0.00 0.00 76 1014.8
20260905153333 87 182 0.0 3.0 0.00 0.00 0.00 78 1014.7
20260905152828 87 130 1.0 3.0 0.00 0.00 0.00 77 1014.8
20260905152322 87 146 1.0 3.0 0.00 0.00 0.00 78 1014.9
20260905151818 86 217 0.0 1.0 0.00 0.00 0.00 79 1014.7
20260905151333 86 217 0.0 0.0 0.00 0.00 0.00 82 1014.7
20260905150830 85 217 0.0 1.0 0.00 0.00 0.00 82 1014.7
20260905150324 85 251 0.0 3.0 0.00 0.00 0.00 82 1014.6
20260905145820 84 254 0.0 1.0 0.00 0.00 0.00 82 1014.6
20260905145331 84 254 0.0 1.0 0.00 0.00 0.00 83 1014.6
20260905144826 83 211 0.0 1.0 0.00 0.00 0.00 84 1014.6
20260905144320 83 305 0.0 1.0 0.00 0.00 0.00 84 1014.6
20260905143834 83 305 0.0 1.0 0.00 0.00 0.00 85 1014.5
20260905143328 82 305 0.0 1.0 0.00 0.00 0.00 87 1014.5
20260905142842 82 305 0.0 1.0 0.00 0.00 0.00 86 1014.5
20260905142335 81 305 0.0 1.0 0.00 0.00 0.00 87 1014.5
20260905141849 81 305 0.0 1.0 0.00 0.00 0.00 88 1014.4
20260905141324 81 215 0.0 0.0 0.00 0.00 0.00 89 1014.3
20260905140819 80 215 0.0 1.0 0.00 0.00 0.00 89 1014.4
20260905140333 80 215 0.0 1.0 0.00 0.00 0.00 90 1014.3
20260905135826 79 268 0.0 1.0 0.00 0.00 0.00 90 1014.2
20260905135321 79 268 0.0 0.0 0.00 0.00 0.00 90 1014.1
20260905134834 79 268 0.0 0.0 0.00 0.00 0.00 91 1014.1
20260905134346 78 268 0.0 0.0 0.00 0.00 0.00 92 1014.0
20260905133820 78 268 0.0 0.0 0.00 0.00 0.00 92 1014.0
20260905133335 77 268 0.0 0.0 0.00 0.00 0.00 92 1014.0
20260905132851 77 268 0.0 0.0 0.00 0.00 0.00 92 1013.9
20260905132324 77 268 0.0 0.0 0.00 0.00 0.00 92 1014.0
20260905131821 76 268 0.0 0.0 0.00 0.00 0.00 92 1014.0
20260905131335 76 268 0.0 0.0 0.00 0.00 0.00 92 1014.0
20260905130831 75 268 0.0 0.0 0.00 0.00 0.00 91 1014.0
20260905130346 75 268 0.0 0.0 0.00 0.00 0.00 91 1014.0
20260905125820 75 268 0.0 0.0 0.00 0.00 0.00 91 1014.1
20260905125351 75 268 0.0 0.0 0.00 0.00 0.00 91 1014.0
20260905124820 75 268 0.0 0.0 0.00 0.00 0.00 91 1013.8
20260905124333 74 268 0.0 0.0 0.00 0.00 0.00 91 1013.8
20260905123827 74 268 0.0 0.0 0.00 0.00 0.00 91 1013.8
20260905123322 74 268 0.0 0.0 0.00 0.00 0.00 91 1013.8
20260905122819 74 268 0.0 0.0 0.00 0.00 0.00 91 1013.7
20260905122334 74 268 0.0 0.0 0.00 0.00 0.00 91 1013.9
20260905121829 74 268 0.0 0.0 0.00 0.00 0.00 90 1013.9
20260905121324 74 268 0.0 0.0 0.00 0.00 0.00 90 1013.7
20260905120821 74 268 0.0 0.0 0.00 0.00 0.00 90 1013.3
20260905120335 74 268 0.0 0.0 0.00 0.00 0.00 90 1013.3
20260905115831 74 268 0.0 0.0 0.00 0.00 0.00 90 1013.1
20260905115325 74 268 0.0 0.0 0.00 0.00 0.00 90 1013.0
20260905114820 74 268 0.0 0.0 0.00 0.00 0.00 90 1013.1
20260905114354 74 268 0.0 0.0 0.00 0.00 0.00 90 1013.0
20260905113827 74 268 0.0 0.0 0.00 0.00 0.00 90 1012.8
20260905113323 74 268 0.0 0.0 0.00 0.00 0.00 90 1012.8
20260905112818 74 268 0.0 0.0 0.00 0.00 0.00 91 1012.8
20260905112331 74 268 0.0 0.0 0.00 0.00 0.00 90 1012.8
20260905111828 74 268 0.0 0.0 0.00 0.00 0.00 90 1012.7
20260905111323 74 268 0.0 0.0 0.00 0.00 0.00 90 1012.8
20260905110820 74 268 0.0 0.0 0.00 0.00 0.00 90 1012.8
20260905110354 74 268 0.0 0.0 0.00 0.00 0.00 90 1012.9
20260905105830 75 268 0.0 0.0 0.00 0.00 0.00 90 1012.7
20260905105343 75 268 0.0 0.0 0.00 0.00 0.00 90 1012.6
20260905104836 75 268 0.0 0.0 0.00 0.00 0.00 90 1012.6
20260905104332 75 268 0.0 0.0 0.00 0.00 0.00 90 1012.7
20260905103826 75 268 0.0 0.0 0.00 0.00 0.00 90 1012.7
20260905103333 75 268 0.0 0.0 0.00 0.00 0.00 90 1012.7
20260905102845 75 268 0.0 0.0 0.00 0.00 0.00 90 1012.7
20260905102320 75 268 0.0 0.0 0.00 0.00 0.00 90 1012.6
20260905101834 75 268 0.0 0.0 0.00 0.00 0.00 90 1012.7
20260905101328 75 268 0.0 0.0 0.00 0.00 0.00 90 1012.8
20260905100843 75 268 0.0 0.0 0.00 0.00 0.00 90 1012.8
20260905100318 75 268 0.0 0.0 0.00 0.00 0.00 90 1012.7
20260905095831 75 268 0.0 0.0 0.00 0.00 0.00 90 1012.7
20260905095327 75 268 0.0 0.0 0.00 0.00 0.00 90 1012.5
20260905094841 75 268 0.0 0.0 0.00 0.00 0.00 90 1012.6
20260905094332 75 268 0.0 0.0 0.00 0.00 0.00 90 1012.6
20260905093826 75 268 0.0 0.0 0.00 0.00 0.00 90 1012.6
20260905093341 75 268 0.0 0.0 0.00 0.00 0.00 90 1012.6
20260905092834 75 268 0.0 0.0 0.00 0.00 0.00 90 1012.7
20260905092330 75 268 0.0 0.0 0.00 0.00 0.00 90 1012.8
20260905091825 75 268 0.0 0.0 0.00 0.00 0.00 90 1012.8
20260905091321 75 268 0.0 0.0 0.00 0.00 0.00 90 1012.9
20260905090816 75 268 0.0 0.0 0.00 0.00 0.00 90 1012.9
20260905090332 75 268 0.0 0.0 0.00 0.00 0.00 90 1012.9
20260905085828 76 268 0.0 0.0 0.00 0.00 0.00 90 1012.9
20260905085324 76 268 0.0 0.0 0.00 0.00 0.00 90 1012.9
20260905084818 76 268 0.0 0.0 0.00 0.00 0.00 90 1013.0
20260905084332 76 268 0.0 0.0 0.00 0.00 0.00 90 1013.0
20260905083827 76 268 0.0 0.0 0.00 0.00 0.00 90 1013.1
20260905083322 76 268 0.0 0.0 0.00 0.00 0.00 90 1013.1
20260905082838 76 268 0.0 0.0 0.00 0.00 0.00 90 1013.1
20260905082332 76 268 0.0 0.0 0.00 0.00 0.00 90 1013.1
20260905081844 76 268 0.0 0.0 0.00 0.00 0.00 90 1013.0
20260905081336 76 268 0.0 0.0 0.00 0.00 0.00 90 1013.0
20260905080831 76 268 0.0 0.0 0.00 0.00 0.00 90 1013.0
20260905080326 76 268 0.0 0.0 0.00 0.00 0.00 90 1013.0
20260905075842 76 268 0.0 0.0 0.00 0.00 0.00 90 1013.0
20260905075331 76 268 0.0 0.0 0.00 0.00 0.00 90 1013.0
20260905074827 76 268 0.0 0.0 0.00 0.00 0.00 90 1013.1
20260905074322 76 268 0.0 0.0 0.00 0.00 0.00 90 1013.1
20260905073818 76 268 0.0 0.0 0.00 0.00 0.00 90 1013.1
20260905073333 76 268 0.0 0.0 0.00 0.00 0.00 90 1013.1
20260905072826 76 268 0.0 0.0 0.00 0.00 0.00 90 1013.2
20260905072321 76 268 0.0 0.0 0.00 0.00 0.00 90 1013.2
20260905071818 76 268 0.0 0.0 0.00 0.00 0.00 90 1013.2
20260905071334 76 268 0.0 0.0 0.00 0.00 0.00 90 1013.2
20260905070826 76 268 0.0 0.0 0.00 0.00 0.00 90 1013.2
20260905070321 77 268 0.0 0.0 0.00 0.00 0.00 90 1013.2
20260905065836 77 268 0.0 0.0 0.00 0.00 0.00 90 1013.2
20260905065352 77 268 0.0 0.0 0.00 0.00 0.00 90 1013.2
20260905064827 77 268 0.0 0.0 0.00 0.00 0.00 90 1013.3
20260905064321 77 268 0.0 0.0 0.00 0.00 0.00 90 1013.2
20260905063835 77 268 0.0 0.0 0.00 0.00 0.00 90 1013.2
20260905063350 77 268 0.0 0.0 0.00 0.00 0.00 90 1013.3
20260905062824 77 268 0.0 0.0 0.00 0.00 0.00 90 1013.3
20260905062338 77 268 0.0 0.0 0.00 0.00 0.00 90 1013.2
20260905061830 77 268 0.0 0.0 0.00 0.00 0.00 90 1013.2
20260905061345 77 268 0.0 0.0 0.00 0.00 0.00 90 1013.2
20260905060855 77 268 0.0 0.0 0.00 0.00 0.00 90 1013.2
20260905060329 77 268 0.0 0.0 0.00 0.00 0.00 90 1013.2
20260905055823 77 268 0.0 0.0 0.00 0.00 0.00 90 1013.3
20260905055341 77 268 0.0 0.0 0.00 0.00 0.00 89 1013.3
20260905054816 77 268 0.0 0.0 0.00 0.00 0.00 90 1013.3
20260905054331 78 268 0.0 0.0 0.00 0.00 0.00 89 1013.3
20260905053827 78 268 0.0 0.0 0.00 0.00 0.00 89 1013.3
20260905053342 78 268 0.0 0.0 0.00 0.00 0.00 89 1013.2
20260905052831 78 268 0.0 0.0 0.00 0.00 0.00 89 1013.2
20260905052326 78 268 0.0 0.0 0.00 0.00 0.00 89 1013.1
20260905051841 78 268 0.0 0.0 0.00 0.00 0.00 89 1013.2
20260905051331 78 268 0.0 0.0 0.00 0.00 0.00 89 1013.2
20260905050826 78 268 0.0 0.0 0.00 0.00 0.00 89 1013.3
20260905050321 78 268 0.0 0.0 0.00 0.00 0.00 89 1013.2
20260905045825 78 268 0.0 0.0 0.00 0.00 0.00 89 1013.3
20260905045319 79 268 0.0 0.0 0.00 0.00 0.00 88 1013.3
20260905044833 79 268 0.0 0.0 0.00 0.00 0.00 88 1013.3
20260905044325 79 268 0.0 0.0 0.00 0.00 0.00 88 1013.3
20260905043820 79 268 0.0 0.0 0.00 0.00 0.00 88 1013.4
20260905043334 79 268 0.0 0.0 0.00 0.00 0.00 88 1013.4
20260905042827 79 268 0.0 0.0 0.00 0.00 0.00 88 1013.4
20260905042321 79 268 0.0 0.0 0.00 0.00 0.00 88 1013.4
20260905041835 80 268 0.0 0.0 0.00 0.00 0.00 87 1013.5
20260905041329 80 268 0.0 0.0 0.00 0.00 0.00 87 1013.4
20260905040820 80 268 0.0 0.0 0.00 0.00 0.00 87 1013.5
20260905040334 80 268 0.0 0.0 0.00 0.00 0.00 87 1013.5
20260905035828 80 268 0.0 0.0 0.00 0.00 0.00 87 1013.4
20260905035326 80 268 0.0 0.0 0.00 0.00 0.00 87 1013.4
20260905034842 80 268 0.0 0.0 0.00 0.00 0.00 86 1013.5
20260905034317 80 268 0.0 1.0 0.00 0.00 0.00 87 1013.5
20260905033849 80 268 0.0 1.0 0.00 0.00 0.00 87 1013.5
20260905033323 80 268 0.0 1.0 0.00 0.00 0.00 87 1013.4
20260905032838 80 268 0.0 0.0 0.00 0.00 0.00 87 1013.4
20260905032332 80 268 0.0 0.0 0.00 0.00 0.00 87 1013.2
20260905031826 80 268 0.0 0.0 0.00 0.00 0.00 87 1012.9
20260905031321 80 268 0.0 0.0 0.00 0.00 0.00 88 1012.6
20260905030817 80 268 0.0 2.0 0.00 0.00 0.00 88 1012.4
20260905030334 80 268 0.0 3.0 0.00 0.00 0.00 88 1012.2
20260905025828 80 117 0.0 3.0 0.00 0.00 0.00 89 1012.1
20260905025323 79 174 0.0 0.0 0.00 0.00 0.00 89 1012.2
20260905024819 79 183 0.0 0.0 0.00 0.00 0.00 89 1012.2
20260905024334 79 66 0.0 0.0 0.00 0.00 0.00 89 1012.3
20260905023828 80 66 0.0 0.0 0.00 0.00 0.00 89 1012.4
20260905023324 80 66 0.0 0.0 0.00 0.00 0.00 89 1012.4
20260905022819 80 66 0.0 0.0 0.00 0.00 0.00 89 1012.4
20260905022355 80 66 0.0 0.0 0.00 0.00 0.00 89 1012.5
20260905021828 80 66 0.0 0.0 0.00 0.00 0.00 89 1012.6
20260905021345 80 66 0.0 0.0 0.00 0.00 0.00 88 1012.6
20260905020819 80 66 0.0 0.0 0.00 0.00 0.00 88 1012.7
20260905020333 80 66 0.0 0.0 0.00 0.00 0.00 89 1012.7
20260905015827 81 66 0.0 0.0 0.00 0.00 0.00 88 1012.7
20260905015344 81 66 0.0 0.0 0.00 0.00 0.00 88 1012.7
20260905014817 81 66 0.0 0.0 0.00 0.00 0.00 88 1012.7
20260905014332 81 66 0.0 0.0 0.00 0.00 0.00 88 1012.7
20260905013829 81 66 0.0 0.0 0.00 0.00 0.00 87 1012.7
20260905013325 81 66 0.0 0.0 0.00 0.00 0.00 87 1012.8
20260905012821 82 66 0.0 0.0 0.00 0.00 0.00 87 1012.7
20260905012317 82 66 0.0 0.0 0.00 0.00 0.00 86 1012.4
20260905011848 82 66 0.0 0.0 0.00 0.00 0.00 86 1012.6
20260905011325 82 66 0.0 0.0 0.00 0.00 0.00 86 1012.5
20260905010820 83 66 0.0 0.0 0.00 0.00 0.00 86 1012.6
20260905010356 83 66 0.0 0.0 0.00 0.00 0.00 85 1012.6
20260905005828 83 66 0.0 0.0 0.00 0.00 0.00 84 1012.6
20260905005343 84 66 0.0 0.0 0.00 0.00 0.00 83 1012.7
20260905004903 84 66 0.0 0.0 0.00 0.00 0.00 82 1012.7
20260905004331 85 66 0.0 0.0 0.00 0.00 0.00 81 1012.7
20260905003827 85 66 0.0 0.0 0.00 0.00 0.00 81 1012.8
20260905003323 86 66 0.0 0.0 0.00 0.00 0.00 80 1012.9
20260905002818 86 66 0.0 0.0 0.00 0.00 0.00 79 1012.8
20260905002355 87 66 0.0 0.0 0.00 0.00 0.00 77 1012.7
20260905001831 88 66 0.0 0.0 0.00 0.00 0.00 75 1012.6
20260905001325 88 66 0.0 0.0 0.00 0.00 0.00 75 1012.6
20260905000820 89 66 0.0 0.0 0.00 0.00 0.00 74 1012.5
20260905000318 89 66 0.0 0.0 0.00 0.00 0.00 74 1012.5
20260904235831 89 66 0.0 0.0 0.00 0.00 0.00 74 1012.4
20260904235326 89 66 0.0 1.0 0.00 0.00 0.00 71 1012.3
20260904234837 90 66 0.0 1.0 0.00 0.00 0.00 71 1012.3
20260904234331 90 244 0.0 0.0 0.00 0.00 0.00 70 1012.3
20260904233827 90 244 0.0 0.0 0.00 0.00 0.00 68 1012.4
20260904233322 90 244 0.0 0.0 0.00 0.00 0.00 69 1012.4
20260904232835 91 244 0.0 0.0 0.00 0.00 0.00 67 1012.6
20260904232329 91 244 0.0 1.0 0.00 0.00 0.00 67 1012.6
20260904231824 91 244 0.0 1.0 0.00 0.00 0.00 67 1012.6
20260904231321 91 244 0.0 1.0 0.00 0.00 0.00 66 1012.5
20260904230833 91 244 0.0 2.0 0.00 0.00 0.00 66 1012.4
20260904230329 91 244 0.0 2.0 0.00 0.00 0.00 65 1012.4
20260904225823 91 334 0.0 1.0 0.00 0.00 0.00 66 1012.2
20260904225330 92 202 0.0 1.0 0.00 0.00 0.00 66 1012.1
20260904224825 92 202 0.0 1.0 0.00 0.00 0.00 66 1011.9
20260904224339 92 222 0.0 1.0 0.00 0.00 0.00 65 1011.8
20260904223854 92 183 0.0 1.0 0.00 0.00 0.00 65 1011.9
20260904223327 92 183 0.0 1.0 0.00 0.00 0.00 64 1011.7
20260904222820 92 183 0.0 1.0 0.00 0.00 0.00 63 1011.7
20260904222334 93 183 0.0 1.0 0.00 0.00 0.00 62 1011.7
20260904221828 93 296 0.0 3.0 0.00 0.00 0.00 62 1011.8
20260904221341 93 296 0.0 3.0 0.00 0.00 0.00 61 1011.9
20260904220856 94 97 0.0 2.0 0.00 0.00 0.00 61 1012.0
20260904220329 94 31 0.0 2.0 0.00 0.00 0.00 60 1012.1
20260904215826 94 31 0.0 2.0 0.00 0.00 0.00 59 1012.1
20260904215322 95 136 0.0 2.0 0.00 0.00 0.00 58 1012.3
20260904214818 95 142 0.0 3.0 0.00 0.00 0.00 59 1012.3
20260904214335 95 205 0.0 3.0 0.00 0.00 0.00 60 1012.2
20260904213829 95 195 0.0 3.0 0.00 0.00 0.00 59 1012.2
20260904213324 95 360 0.0 4.0 0.00 0.00 0.00 58 1012.3
20260904212839 95 122 1.0 4.0 0.00 0.00 0.00 58 1012.4
20260904212332 95 230 0.0 2.0 0.00 0.00 0.00 57 1012.3
20260904211827 95 22 0.0 1.0 0.00 0.00 0.00 58 1012.4
20260904211321 96 26 0.0 2.0 0.00 0.00 0.00 57 1012.4
20260904210835 96 34 1.0 4.0 0.00 0.00 0.00 56 1012.4
20260904210329 96 138 1.0 4.0 0.00 0.00 0.00 58 1012.4
20260904205823 96 271 0.0 1.0 0.00 0.00 0.00 57 1012.4
20260904205317 96 180 0.0 3.0 0.00 0.00 0.00 59 1012.4
20260904204833 96 128 1.0 3.0 0.00 0.00 0.00 56 1012.5
20260904204326 96 233 1.0 3.0 0.00 0.00 0.00 55 1012.4
20260904203821 95 306 1.0 3.0 0.00 0.00 0.00 57 1012.5
20260904203331 95 318 1.0 3.0 0.00 0.00 0.00 56 1012.6